Weather History for Toledo, OH

Change the Weather History Date:

Wednesday, July 3, 2013

  Actual Average Record
Temperature  
Mean Temperature 73 °F 73 °F  
Max Temperature 83 °F 85 °F 100 °F (1911)
Min Temperature 63 °F 62 °F 47 °F (1988)
Degree Days  
Heating Degree Days 0 0  
Month to date heating degree days 1 0  
Since 1 June heating degree days 32 35  
Since 1 July heating degree days 1 0  
Cooling Degree Days 8 9  
Month to date cooling degree days 9 25  
Year to date cooling degree days 265 248  
Since 1 June cooling degree days 171 195  
Growing Degree Days 22 (Base 50)    
Moisture  
Dew Point 64 °F    
Average Humidity 76    
Maximum Humidity 100    
Minimum Humidity 51    
Precipitation  
Precipitation 0.00 in 0.10 in 2.19 in (1975)
Month to date precipitation 0.11 0.31  
Year to date precipitation 20.96 17.25  
Snow  
Snow 0.00 in 0.00 in - ()
Month to date snowfall 0.0 0.0  
Since 1 June snowfall 0.0 0.0  
Since 1 July snowfall 0.0 0.0  
Snow Depth 0.00 in    
Sea Level Pressure  
Sea Level Pressure 30.07 in    
Wind  
Wind Speed 4 mph (South)    
Max Wind Speed 13 mph    
Max Gust Speed 17 mph    
Visibility 6 miles    
Events Fog    
T = Trace of Precipitation, MM = Missing Value Source: NWS Daily Summary

Daily Weather History Graph

Daily Weather History Graph

Search for Another Location

Airport:

Trip Planner

Search our weather history database for the weather conditions in past years. The results will help you decide how hot, cold, wet, or windy it might be!

Date:

Astronomy

Jul. 03, 2013 Rise Set
Actual Time 6:06 AM EDT 9:12 PM EDT
Civil Twilight 5:32 AM EDT 9:46 PM EDT
Nautical Twilight 4:48 AM EDT 10:29 PM EDT
Astronomical Twilight 3:57 AM EDT 11:20 PM EDT
Moon 2:45 AM EDT (7/3) 5:21 PM EDT (7/3)
Length of Visible Light 16h 14m
Length of Day
15h 06m
Waning Crescent, 18% of the Moon is Illuminated
Jul 3
Waning Crescent
Jul 8
New
Jul 15
First Quarter
Jul 22
Full
Jul 29
Last Quarter

Hourly Weather History & Observations

Time (EDT) Temp. Heat Index Dew Point Humidity Pressure Visibility Wind Dir Wind Speed Gust Speed Precip Events Conditions
12:52 AM 64.0 °F - 62.1 °F 93% 30.05 in 5.0 mi ENE 4.6 mph - N/A   Scattered Clouds
1:52 AM 63.0 °F - 62.1 °F 97% 30.05 in 6.0 mi Calm Calm - N/A   Clear
2:52 AM 64.0 °F - 62.1 °F 93% 30.04 in 5.0 mi ENE 3.5 mph - N/A   Scattered Clouds
3:52 AM 64.0 °F - 62.1 °F 93% 30.03 in 4.0 mi East 4.6 mph - N/A   Partly Cloudy
4:36 AM 64.4 °F - 62.6 °F 94% 30.03 in 3.0 mi Calm Calm - N/A   Scattered Clouds
4:49 AM 64.4 °F - 62.6 °F 94% 30.04 in 3.0 mi Calm Calm - N/A   Mostly Cloudy
4:52 AM 64.9 °F - 63.0 °F 93% 30.03 in 4.0 mi SE 4.6 mph - N/A   Mostly Cloudy
5:25 AM 64.4 °F - 64.4 °F 100% 30.05 in 3.0 mi Calm Calm - N/A   Overcast
5:52 AM 64.9 °F - 64.0 °F 97% 30.04 in 4.0 mi Calm Calm - N/A   Overcast
6:17 AM 64.4 °F - 62.6 °F 94% 30.06 in 2.0 mi Calm Calm - N/A   Mostly Cloudy
6:32 AM 64.4 °F - 62.6 °F 94% 30.06 in 1.8 mi Calm Calm - N/A   Overcast
6:52 AM 64.9 °F - 64.0 °F 97% 30.06 in 2.0 mi Calm Calm - N/A   Overcast
7:02 AM 64.4 °F - 64.4 °F 100% 30.07 in 1.2 mi ESE 3.5 mph - N/A   Overcast
7:12 AM 64.4 °F - 64.4 °F 100% 30.07 in 0.5 mi SE 3.5 mph - N/A Fog Fog
7:52 AM 64.9 °F - 64.0 °F 97% 30.07 in 0.5 mi SSE 3.5 mph - N/A Fog Fog
8:08 AM 64.4 °F - 64.4 °F 100% 30.08 in 1.2 mi SSE 4.6 mph - N/A   Overcast
8:52 AM 66.0 °F - 64.9 °F 96% 30.09 in 1.2 mi SSW 4.6 mph - N/A   Overcast
9:02 AM 66.2 °F - 64.4 °F 94% 30.10 in 1.8 mi Calm Calm - N/A   Overcast
9:17 AM 66.2 °F - 64.4 °F 94% 30.10 in 2.5 mi South 4.6 mph - N/A   Overcast
9:32 AM 66.2 °F - 64.4 °F 94% 30.11 in 3.0 mi SSE 4.6 mph - N/A   Overcast
9:52 AM 66.9 °F - 64.9 °F 93% 30.11 in 3.0 mi South 5.8 mph - N/A   Overcast
10:27 AM 69.8 °F - 64.4 °F 83% 30.12 in 7.0 mi SW 4.6 mph - N/A   Mostly Cloudy
10:40 AM 71.6 °F - 64.4 °F 78% 30.11 in 9.0 mi SSW 5.8 mph - N/A   Scattered Clouds
10:52 AM 72.0 °F - 64.9 °F 78% 30.11 in 10.0 mi South 5.8 mph - N/A   Partly Cloudy
11:52 AM 77.0 °F - 64.9 °F 66% 30.10 in 10.0 mi Variable 3.5 mph - N/A   Clear
12:52 PM 79.0 °F - 64.0 °F 60% 30.09 in 10.0 mi SW 4.6 mph - N/A   Mostly Cloudy
1:52 PM 81.0 °F 82.5 °F 64.0 °F 56% 30.09 in 10.0 mi Variable 4.6 mph - N/A   Partly Cloudy
2:52 PM 82.0 °F 83.0 °F 62.1 °F 51% 30.07 in 10.0 mi SSW 10.4 mph - N/A   Partly Cloudy
3:52 PM 82.0 °F 83.1 °F 63.0 °F 52% 30.07 in 10.0 mi Variable 5.8 mph - N/A   Mostly Cloudy
4:52 PM 81.0 °F 82.5 °F 64.0 °F 56% 30.06 in 10.0 mi SSW 5.8 mph - N/A   Partly Cloudy
5:52 PM 80.1 °F 81.7 °F 64.0 °F 58% 30.06 in 10.0 mi SW 5.8 mph - N/A   Clear
6:52 PM 79.0 °F - 66.0 °F 64% 30.05 in 10.0 mi Calm Calm - N/A   Clear
7:52 PM 77.0 °F - 64.9 °F 66% 30.06 in 10.0 mi Calm Calm - N/A   Clear
8:52 PM 75.0 °F - 64.0 °F 69% 30.06 in 10.0 mi SSW 3.5 mph - N/A   Clear
9:52 PM 73.0 °F - 64.0 °F 73% 30.08 in 10.0 mi South 3.5 mph - N/A   Clear
10:52 PM 71.1 °F - 64.9 °F 81% 30.09 in 10.0 mi SW 3.5 mph - N/A   Mostly Cloudy
11:52 PM 69.1 °F - 64.9 °F 87% 30.09 in 10.0 mi Calm Calm - N/A   Overcast